Voltar ao catálogo

PEGASUS DEB

AtivoPO
NORAD 24091·DEBRIS·🇺🇸 United States

Lançado May 19, 1994 de Vandenberg Space Force Base

Loading…

Próximas Passagens (próximas 24 horas)

TLE

AtualizadoSource: Space-Track

Época: Sep 14, 2026, 08:12 UTC

1 24091U 94029EN  26257.34187597  .00002488  00000-0  15604-3 0  9997
2 24091  81.9877 283.2987 0058384 246.5154 125.1221 15.07477460643729

Acompanhe PEGASUS DEB em tempo real com AllMySat

Download on the App Store